Home > Weather > Edmundston > Past weeks

Flag for Canada Past Weather in Edmundston, New Brunswick, Canada — Yesterday and Last 2 Weeks

Now
72 °F

Mild.


Feels Like: 77 °F
Forecast: 65 / 82 °F
Wind: 9 mph from South

Location: St Leonard

Current Time: Jun 26, 2016 at 11:21:43 PM

Latest Report: Jun 26, 2016 at 10:00 PM


Visibility: N/A

Pressure: 30.04 "Hg

Humidity: 49%

Dew Point: 52 °F

Location of EdmundstonLocation

Past Weather in Edmundston — Graph

°F

Edmundston Temperature Yesterday

Maximum temperature yesterday: 84 °F (at 5:00 PM)
Minimum temperature yesterday: 49 °F (at 6:00 AM)
Average temperature yesterday: 66 °F

High & Low Weather Summary for the Past Weeks

 TemperatureHumidityPressure
High87 °F (Jun 19, 6:00 PM)100% (Jun 12, 10:00 PM)30.20 "Hg (Jun 12, 10:00 PM)
Low36 °F (Jun 17, 6:00 AM)21% (Jun 18, 5:00 PM)29.45 "Hg (Jun 12, 12:00 PM)
Average59 °F67%29.85 "Hg
* Reported Jun 11 10:00 PM — Jun 26 10:00 PM, Edmundston, Weather by CustomWeather, © 2016

Note: Actual official high and low records may vary slightly from our data, if they occured in-between our weather recording intervals... More about our weather records

Advertising

Edmundston Weather History for the Previous 24 Hours

Scroll right to see more
 ConditionsComfort  
Time TempWeatherWind HumidityBarometerVisibility
10:00 PM
Sun, Jun 26
72 °FMild.9 mph49%30.04 "HgN/A
9:00 PM76 °FMild.8 mph43%30.04 "HgN/A
8:00 PM80 °FPleasantly warm.8 mph34%30.05 "HgN/A
7:00 PM82 °FPleasantly warm.12 mph35%30.05 "HgN/A
6:00 PM85 °FPleasantly warm.10 mph32%30.06 "HgN/A
5:00 PM84 °FPleasantly warm.12 mph36%30.08 "HgN/A
4:00 PM86 °FPleasantly warm.10 mph32%30.09 "HgN/A
3:00 PM85 °FPleasantly warm.10 mph33%30.11 "HgN/A
2:00 PM83 °FPleasantly warm.12 mph38%30.13 "HgN/A
1:00 PM82 °FPleasantly warm.8 mph39%30.14 "HgN/A
12:00 PM79 °FWarm.7 mph47%30.16 "HgN/A
11:00 AM76 °FMild.6 mph56%30.16 "HgN/A
10:00 AM72 °FMild.7 mph61%30.17 "HgN/A
9:00 AM67 °FMild.7 mph67%30.18 "HgN/A
8:00 AM63 °FMild.5 mph76%30.17 "HgN/A
7:00 AM60 °FCool.3 mph83%30.17 "HgN/A
6:00 AM53 °FCool.5 mph93%30.16 "HgN/A
5:00 AM57 °FCool.5 mph78%30.16 "HgN/A
3:00 AM60 °FCool.6 mph73%30.13 "HgN/A
2:00 AM64 °FMild.6 mph69%30.13 "HgN/A
1:00 AM66 °FMild.7 mph64%30.13 "HgN/A
12:00 AM65 °FMild.5 mph66%30.14 "HgN/A
11:00 PM
Sat, Jun 25
70 °FMild.8 mph54%30.14 "HgN/A
Weather by CustomWeather, © 2016

See weather overviewHow to use our weather pages